Find Starlink 35932

NORAD ID: 66526 Int'l Des: 2025-265 Owner: SPXS Country: US Constellation: starlink operational
LEOCIRCULAR

当前视图

正在加载3D地球...

About Starlink 35932

Starlink 35932 (NORAD 66526) is a starlink constellation satellite (v2 mini) launched Nov 19, 2025 by SPXS of US. It operates in LEO, CIRCULAR orbit with a mass of 575.00 kg.

即将过境

Passes for default location (London). Set your location on the main map for personalized predictions.

高度历史

Loading altitude history...

两行轨道根数

1 66526U 25265L 26263.34061462 .00008756 00000-0 32726-3 0 9999
2 66526 42.9999 258.5772 0001294 273.7028 86.3675 15.27586682 46881
Epoch: Sep 20, 2026 • Age: 18 hours

当前状态

高度 486.7 km
远地点 / 近地点 N/A
速度 7.62 km/s
星下点 -18.75°S, 60.41°E
发射日期 Nov 19, 2025
运行时间 0.8 years
类型 internet

技术详情

分类 Payload
质量 575.00 kg
干质量 530.00 kg
长度 0.30 m
跨度 29.00 m
形状 ? Box + pan
制造商 SPXS
平台类型 Starlink V2MO
阶段状态 In Orbit
所有者/国家 SPXS/US

Most Searched